CAPE
9 10 9 9 9 9 10 14 14 18 20 30 34 38 48 36 36 0 0 0 0 22 34 0 0 15 16 4 58 166 102 16 23 2 0 0 15 7 0 0 4 153 318 475 521
8 7 6 9 7 10 11 11 11 16 25 32 35 40 37 39 0 0 0 112 67 67 0 0 0 4 18 20 124 176 53 12 0 0 0 0 29 70 0 0 432 581 627 943 902
4 4 7 7 8 8 10 14 15 16 26 33 35 32 30 11 0 0 40 78 117 27 25 1 2 33 41 1 105 55 20 3 7 0 0 27 13 74 25 0 17 529 1217 1011 999
4 4 6 8 8 9 10 11 11 13 25 29 24 23 19 0 0 0 52 80 36 0 0 1 2 21 41 34 14 53 56 8 12 10 5 67 99 40 21 3 0 37 1095 1062 1037
3 3 6 4 5 5 5 5 7 11 18 20 22 7 5 0 0 0 51 18 0 0 0 1 0 0 27 19 38 29 0 12 21 65 1 2 0 28 7 19 0 0 402 879 971
3 4 3 4 5 3 3 1 3 7 6 9 7 1 0 0 0 0 0 0 0 0 0 1 0 0 0 2 11 1 7 0 1 24 28 1 0 6 61 5 0 0 0 265 679
2 2 3 2 5 3 0 0 1 0 0 0 0 0 0 0 0 0 0 0 0 0 0 32 7 1 0 15 0 2 4 0 0 0 1 28 14 0 0 2 0 0 0 109 545
3 3 3 3 5 3 0 0 0 0 3 0 0 0 0 0 0 0 0 0 0 10 3 24 29 13 0 0 0 13 29 7 0 0 8 3 6 0 0 13 0 0 0 0 438
2 2 3 3 4 3 0 0 0 0 0 0 0 0 0 0 0 0 0 0 0 36 48 38 22 13 19 34 0 0 0 1 0 0 26 6 0 5 1 9 0 2 0 0 318
2 2 1 3 2 0 0 0 0 0 0 0 0 0 0 0 0 0 0 0 0 22 17 8 0 0 1 6 0 0 10 0 0 0 0 23 0 25 0 0 0 1 1 0 223
1 0 0 1 0 0 0 0 0 0 0 0 0 0 0 0 0 0 0 0 0 0 0 0 1 0 0 0 0 0 0 7 0 0 0 0 26 51 41 4 20 7 0 0 0
0 0 0 0 0 0 0 0 0 0 0 0 0 0 0 0 0 0 0 0 0 0 0 1 0 0 0 0 0 0 0 0 0 0 0 0 5 40 98 75 1 1 4 11 0
0 0 0 0 0 0 0 0 0 0 0 0 0 0 0 0 0 0 0 0 0 0 0 0 0 0 2 34 13 2 0 0 0 0 0 0 0 2 29 81 61 35 32 16 17
0 0 0 0 0 0 0 0 0 0 0 0 0 0 0 0 1 2 0 0 0 0 0 0 0 0 0 0 3 1 1 0 0 1 4 0 0 0 3 13 20 33 39 20 0
0 0 0 0 0 0 0 0 0 0 0 0 0 0 0 0 0 0 0 0 0 0 0 0 0 0 0 0 9 0 19 16 6 1 0 0 1 0 2 7 0 0 0 0 0
0 0 0 0 0 0 0 0 0 0 0 0 0 0 0 0 0 0 0 0 0 0 0 0 0 0 0 0 0 32 3 12 0 0 1 0 0 0 0 0 0 0 0 0 0
0 0 0 0 0 0 0 0 0 0 0 0 0 0 0 0 0 0 0 0 0 0 0 0 0 0 0 0 24 16 0 0 0 6 0 1 0 0 0 0 0 0 0 0 0
0 0 0 0 0 0 0 0 0 0 0 0 0 0 0 0 0 0 0 0 0 0 0 0 0 0 0 0 1 12 0 0 0 0 0 0 0 0 0 0 0 8 0 0 0
0 0 0 0 0 0 0 0 0 0 0 0 0 0 0 0 0 0 0 2 1 0 0 0 0 0 0 0 0 0 1 0 0 0 0 0 0 0 0 0 0 0 0 0 2
0 0 0 0 0 0 0 0 0 0 0 0 0 0 0 0 0 0 0 6 0 0 0 0 0 0 0 3 1 1 0 0 0 0 0 0 0 0 0 0 0 0 0 0 34
0 0 0 0 0 0 0 0 0 0 0 0 0 0 0 0 0 0 0 0 0 0 0 0 0 0 0 0 0 0 1 7 0 0 1 2 0 0 0 0 0 0 0 0 31
0 0 0 0 0 0 0 0 0 0 0 0 0 0 0 0 0 0 0 0 0 0 0 0 1 0 0 0 0 1 10 0 0 0 0 0 0 0 0 0 0 0 0 20 60
0 0 0 0 0 0 0 0 0 0 0 0 0 0 0 0 0 0 0 0 0 0 0 0 0 0 0 0 2 0 0 0 1 0 0 0 0 0 0 0 0 0 0 78 68
0 0 0 0 0 0 0 0 0 0 0 0 0 0 0 0 0 0 0 0 0 0 0 0 0 0 0 0 1 0 0 0 13 5 0 0 0 0 0 0 0 0 0 44 82
0 0 0 0 0 0 0 0 0 0 0 0 0 0 0 0 0 0 0 0 0 0 0 0 0 0 0 0 1 0 0 0 0 0 0 0 0 0 0 0 0 0 0 0 0
0 0 0 0 0 0 0 0 0 0 0 0 0 0 0 0 0 0 0 0 0 0 0 0 0 0 0 0 0 1 0 2 0 0 0 0 1 0 0 0 0 0 0 0 0
0 0 0 0 0 0 0 0 0 0 0 0 0 0 0 0 0 0 0 0 0 0 0 0 0 0 0 0 1 0 0 3 0 1 0 0 1 0 0 0 0 0 0 0 0
CIN
0 0 0 0 0 0 0 0 0 0 0 0 0 0 0 0 0 0 0 0 0 -7 -9 0 0 -19 -17 -11 -16 -10 0 -1 -2 -5 0 0 -62 -131 0 0 -52 -209 -204 -213 -203
0 0 0 0 0 0 0 0 0 0 0 0 0 0 0 0 0 0 0 0 0 -3 0 0 0 -26 -6 -9 -16 -1 -2 -5 0 0 -2 -15 -43 -88 0 0 -124 -175 -222 -121 -117
0 0 0 0 0 0 0 0 0 0 0 0 0 0 0 -7 0 0 -1 -1 -4 -17 -19 -25 -27 -17 -1 -16 -7 -8 -1 -4 -14 0 -4 -9 -19 -47 -89 0 -23 -145 -96 -115 -96
0 0 0 0 0 0 0 0 0 0 0 0 0 0 0 -1 0 0 -6 0 -3 0 0 -40 -18 -2 -1 -3 -8 -3 -5 -21 -13 -22 -38 -3 -6 -7 -32 -45 0 -255 -118 -113 -73
0 0 0 0 0 0 0 0 0 0 0 0 0 0 -1 0 0 0 -9 -7 0 0 0 -10 -16 0 -4 -14 -8 -6 -1 -6 -15 -9 -5 -3 0 -6 -15 -78 -15 0 -126 -105 -70
0 0 0 0 0 0 0 0 0 0 0 0 0 0 0 0 0 0 0 0 0 0 -11 -5 0 0 0 -19 -7 -8 -8 0 -6 -7 -10 -6 0 0 -8 -5 0 0 0 -106 -63
0 0 0 0 0 0 0 0 0 0 0 0 0 0 0 0 0 0 0 0 0 0 0 -17 -19 -2 0 -16 -19 -36 -11 0 0 0 -7 -6 0 0 -3 -35 0 0 0 -92 -67
0 0 0 0 0 0 0 0 0 0 -2 0 0 0 0 0 0 0 0 0 0 -31 -6 -17 -22 -4 0 0 0 -1 0 -10 0 0 -3 -14 0 0 -2 -27 -8 0 0 0 -52
0 0 0 0 0 0 0 0 0 0 0 0 0 0 0 0 0 0 0 0 0 -63 -30 -6 -10 -7 -1 0 0 0 0 -4 0 0 -33 -12 0 -7 -17 -29 0 0 0 0 -33
0 0 0 0 0 0 0 0 0 0 0 0 0 0 0 0 0 0 0 0 0 -41 -42 -29 -11 0 -1 -4 0 0 -1 0 0 0 0 -12 0 -29 0 0 0 0 -6 0 -21
0 0 0 0 0 0 0 0 0 0 0 0 0 0 0 0 0 0 0 0 0 0 0 0 -1 0 0 0 0 0 0 -1 0 0 0 -17 -15 -9 -55 -33 -8 -23 0 0 0
0 0 0 0 0 0 0 0 0 0 0 0 0 0 0 0 0 0 0 0 0 0 0 -1 0 0 0 0 0 0 0 0 0 0 0 0 -17 -40 -49 -45 -19 -77 -1 -8 -22
0 0 0 0 0 0 0 0 0 0 0 0 0 0 0 0 0 0 0 0 0 0 0 0 0 0 -5 -8 0 -1 0 0 0 0 0 0 0 -14 -43 -43 -56 -42 -14 -17 -9
0 0 0 0 0 0 0 0 0 0 0 0 0 0 0 0 -4 -2 0 0 0 0 0 0 0 0 0 0 -17 0 -1 0 0 0 -21 0 -1 0 -22 -47 -64 -50 -47 -20 0
0 0 0 0 0 0 0 0 0 0 0 0 0 0 0 0 0 0 0 0 0 0 0 0 0 0 0 0 -19 0 -3 -5 -1 -15 0 0 -4 0 -16 -35 0 0 0 0 0
0 0 0 0 0 0 0 0 0 0 0 0 0 0 0 0 0 0 0 0 0 0 0 0 0 0 0 0 0 -17 -9 -7 0 0 -1 0 0 0 0 0 0 0 0 0 0
0 0 0 0 0 0 0 0 0 0 0 0 0 0 0 0 0 0 0 0 0 0 0 0 0 0 0 0 -19 -13 0 0 -1 -2 0 0 0 0 0 0 0 0 0 0 0
0 0 0 0 0 0 0 0 0 0 0 0 0 0 0 0 0 0 0 0 0 0 0 0 0 0 -1 0 -1 -13 0 0 -5 0 0 0 0 0 0 0 0 -153 -34 0 -9
0 0 0 0 0 0 0 0 0 0 0 0 0 0 0 0 0 0 0 -1 -1 0 0 0 0 0 0 0 0 0 0 0 0 0 -3 0 0 0 0 0 0 0 0 0 0
0 0 0 0 0 0 0 0 0 0 0 0 0 0 0 0 0 0 0 -2 0 0 0 0 0 0 0 -8 -9 -7 0 -3 0 0 0 0 0 0 0 0 0 -77 0 0 -53
0 0 0 0 0 0 0 0 0 0 0 0 0 0 0 0 0 0 0 0 0 0 0 0 0 0 0 -2 0 0 -5 -4 0 0 -11 -19 0 0 0 0 0 0 0 0 -60
0 0 0 0 0 0 0 0 0 0 0 0 0 0 0 0 0 0 0 0 0 0 0 0 -1 0 0 0 0 -32 -16 -1 0 0 0 0 0 0 0 0 0 0 0 -196 -83
0 0 0 0 0 0 0 0 0 0 0 0 0 0 0 0 0 0 0 0 0 0 0 0 0 0 0 0 -3 0 0 0 -12 0 0 0 0 0 0 0 0 0 0 -115 -60
0 0 0 0 0 0 0 0 0 0 0 0 0 0 0 0 0 0 0 0 0 0 0 0 0 0 0 0 -4 0 0 0 0 -1 -4 0 0 0 0 0 0 0 0 -137 -55
0 0 0 0 0 0 0 0 0 0 0 0 0 0 0 0 0 0 0 0 0 0 0 0 0 0 0 0 0 0 0 0 -2 0 0 0 0 0 0 0 0 0 0 0 -29
0 0 0 0 0 0 0 0 0 0 0 0 0 0 0 0 0 0 0 0 0 0 0 0 0 0 0 0 0 0 0 0 0 0 0 0 0 0 0 0 0 0 0 0 0
0 0 0 0 0 0 0 0 0 0 0 0 0 0 0 0 0 0 0 0 0 0 0 0 0 0 0 0 0 0 0 0 0 0 0 0 0 0 0 0 0 0 0 0 0
Wind_Speed
17 19 19 19 19 20 21 21 21 20 21 21 21 21 21 21 19 8 12 11 6 14 6 8 5 9 6 5 5 4 6 13 9 11 6 5 5 4 5 5 3 2 7 11 16
18 18 19 19 20 21 21 21 22 22 21 20 20 20 18 19 6 13 11 14 5 8 5 5 8 8 5 5 4 7 7 15 5 5 3 11 3 2 3 4 4 3 9 19 16
17 19 20 21 21 22 23 22 22 22 22 21 20 18 18 9 5 6 7 10 4 6 9 6 8 9 10 6 6 6 8 11 4 5 8 3 8 2 5 5 4 6 15 17 17
18 19 20 21 21 22 23 23 23 22 22 20 18 16 15 3 2 4 12 10 8 3 5 5 6 3 4 10 4 4 6 10 4 4 5 4 2 7 2 4 9 6 12 9 14
18 19 21 22 23 23 24 24 23 22 19 17 15 10 4 3 8 8 13 6 2 2 4 3 7 3 4 5 3 9 3 7 7 6 7 8 7 7 7 7 8 12 4 9 10
18 20 21 22 23 24 25 25 24 22 18 15 11 7 2 4 5 7 6 3 4 1 1 2 1 7 3 3 4 6 6 13 8 6 6 6 14 8 3 5 6 10 13 5 10
18 19 21 22 23 25 27 27 25 24 19 12 4 2 1 11 3 8 7 5 3 4 3 2 2 2 5 4 8 9 5 3 5 5 7 5 12 14 4 7 5 7 9 7 9
19 20 22 22 24 25 26 28 27 21 14 4 1 0 6 6 5 7 5 7 2 3 3 5 2 2 2 6 4 4 4 2 3 8 4 15 7 10 9 7 5 9 6 7 8
20 21 22 23 24 24 24 27 26 12 13 3 3 4 8 7 6 10 3 4 1 5 4 6 2 2 2 1 3 3 3 5 4 6 5 9 5 10 12 10 5 10 7 8 8
20 21 23 23 23 22 21 22 20 9 11 5 3 2 5 8 7 8 5 4 4 5 3 3 3 1 2 3 5 4 4 1 3 3 10 5 5 4 14 15 12 9 1 6 8
20 22 24 24 22 19 9 5 9 10 9 2 6 5 8 7 6 7 7 4 2 1 2 1 1 4 7 7 3 1 1 3 4 5 5 9 7 6 12 11 12 10 3 4 5
21 22 25 23 20 9 5 6 2 5 8 4 8 9 10 5 5 9 5 5 3 4 1 1 7 7 5 6 7 4 5 2 6 6 3 6 9 13 10 11 14 7 9 8 1
21 23 24 21 13 5 6 4 5 1 3 8 5 5 9 2 4 6 4 4 2 4 4 4 6 6 7 4 7 7 8 4 4 8 5 3 3 6 8 4 11 15 16 6 6
21 22 21 23 6 4 2 6 5 1 6 10 8 7 9 9 1 4 6 3 4 4 6 4 4 4 3 4 7 1 3 8 4 1 1 4 3 4 7 10 12 14 17 16 11
21 21 17 8 2 2 5 6 4 4 8 15 7 5 14 8 7 9 3 5 3 4 2 5 6 4 3 1 6 5 6 5 6 6 3 2 3 6 7 9 11 11 12 11 10
22 19 14 3 2 5 4 2 5 10 4 8 6 12 11 9 7 9 8 7 2 4 3 7 4 2 4 3 1 5 4 5 4 4 1 6 6 5 8 19 12 11 15 14 13
22 17 6 2 5 6 3 4 8 9 6 9 8 13 5 12 8 9 5 11 6 9 8 7 6 3 1 4 4 5 5 2 4 3 6 3 6 9 1 4 16 19 15 13 14
19 9 4 2 6 4 4 8 11 4 3 6 8 10 6 13 7 10 8 5 5 5 2 5 9 5 8 2 3 3 4 5 6 4 3 3 3 6 5 8 7 8 14 16 17
10 4 4 7 8 2 8 9 6 3 5 6 9 5 6 8 3 8 6 6 4 2 2 3 6 6 5 4 3 5 1 1 6 2 4 3 5 8 6 3 7 14 15 18 20
3 2 4 14 6 6 8 5 1 3 5 3 4 3 5 8 10 6 3 4 6 7 2 5 6 3 7 3 2 4 4 2 3 4 2 2 1 3 11 11 4 13 15 16 16
4 4 6 13 5 8 5 2 2 4 6 3 3 4 4 2 4 4 6 1 5 8 6 1 3 6 7 1 2 3 4 2 2 2 3 4 1 7 7 10 8 9 14 16 16
3 5 7 6 8 2 2 3 7 7 6 5 4 3 4 4 4 4 3 4 9 10 6 4 2 5 4 9 6 4 4 3 4 3 2 2 1 7 10 12 11 3 14 15 19
3 1 6 6 5 4 4 5 4 8 6 5 5 5 5 4 5 4 5 6 9 10 3 5 3 6 7 4 2 4 3 2 2 1 2 3 2 11 14 15 15 11 7 13 16
4 4 6 6 1 5 2 5 6 7 1 4 3 4 6 3 1 9 11 7 17 6 7 5 2 4 4 7 2 5 3 6 3 1 1 2 2 13 16 16 18 18 11 6 12
4 2 3 2 5 3 4 1 4 7 3 6 4 6 5 3 7 3 4 9 6 5 6 4 4 2 9 17 13 10 5 4 2 2 1 7 4 7 11 12 12 13 15 11 7
4 3 4 1 1 5 6 4 4 4 2 5 3 10 5 4 7 13 7 0 7 6 6 4 4 4 5 4 7 8 3 4 5 5 6 8 5 2 7 6 16 16 14 12 10
2 2 5 4 3 5 3 4 4 3 5 2 8 5 9 10 9 15 14 13 13 5 3 2 2 5 7 7 2 9 14 5 5 12 4 4 5 6 6 9 12 14 15 13 11
Wind_Direction
350 351 348 345 343 340 338 335 332 330 330 327 324 325 328 327 321 310 288 231 252 251 281 288 292 284 272 248 204 158 232 225 229 199 208 179 190 259 302 265 309 3 148 143 137
350 347 345 343 340 336 333 333 331 329 327 325 323 325 325 325 338 297 264 16 228 4 351 333 277 270 224 214 225 195 219 235 202 233 252 257 296 33 335 312 330 28 91 138 140
347 345 342 340 338 334 331 331 330 327 325 323 325 325 325 339 342 255 333 329 247 256 259 282 259 233 212 220 197 202 223 232 226 236 313 185 279 38 360 267 359 243 144 146 144
347 344 341 336 334 333 330 330 329 324 325 328 326 319 322 41 335 287 318 297 319 353 292 311 325 213 224 213 222 256 210 247 294 207 327 342 344 255 169 294 318 277 154 144 153
346 340 340 338 336 335 330 328 326 325 326 328 325 330 358 358 251 263 310 327 13 347 357 353 339 311 215 334 235 237 241 250 251 197 255 295 279 298 251 283 344 10 291 135 147
344 342 339 339 337 334 329 326 326 325 321 321 331 325 60 291 248 283 295 259 230 200 316 338 337 324 277 275 279 341 233 239 253 206 219 298 278 309 219 89 4 8 348 195 141
343 339 338 339 338 334 331 326 325 325 315 310 348 347 276 246 265 318 310 281 232 178 195 267 229 128 326 281 2 293 291 252 219 202 174 154 268 234 218 19 317 353 4 282 164
342 341 339 338 337 335 331 325 325 321 312 335 158 199 256 261 269 284 288 296 352 338 184 241 121 151 285 312 288 229 216 157 247 187 194 123 270 240 213 173 263 311 332 314 173
343 341 337 336 336 336 331 323 329 331 349 295 95 128 282 309 337 304 248 266 354 33 39 111 46 16 236 281 1 297 197 189 274 200 172 159 180 234 155 154 197 264 342 337 153
345 340 337 337 337 338 332 323 331 14 344 84 108 37 307 303 293 297 286 243 235 148 78 63 43 65 278 170 200 188 194 200 229 246 196 177 186 101 173 179 185 225 291 335 171
345 343 338 339 340 345 346 12 10 349 38 297 284 250 267 276 293 287 289 333 26 116 270 109 355 241 208 235 295 64 74 334 317 299 310 198 169 201 174 187 174 191 211 317 292
346 345 339 339 340 19 33 62 97 209 316 282 255 251 266 252 309 313 9 15 353 298 37 85 260 234 212 253 239 242 252 234 300 276 239 268 203 198 186 177 176 149 231 193 19
348 345 341 335 334 57 74 43 301 211 261 298 260 278 290 296 302 316 350 325 326 330 327 193 255 262 224 150 218 233 230 187 250 347 290 282 300 193 191 182 173 179 205 159 82
348 346 341 329 50 330 16 324 320 134 64 337 352 344 342 317 55 335 350 325 349 307 318 259 301 358 271 221 146 154 225 213 207 269 279 344 272 239 183 185 193 191 180 184 153
347 344 339 4 277 37 273 317 335 52 58 323 332 303 320 16 319 341 12 5 298 288 328 269 319 359 349 7 160 203 159 142 184 169 67 318 100 272 177 197 196 184 183 173 155
344 343 340 359 347 245 299 317 53 45 302 330 328 335 352 354 359 313 9 354 343 332 311 255 264 318 230 311 237 145 87 53 100 137 80 221 142 259 196 212 187 182 187 177 175
342 336 323 280 296 310 335 53 45 80 328 338 332 330 344 345 336 355 356 31 31 7 6 331 337 290 190 342 22 82 73 57 47 25 210 67 169 241 255 205 192 190 186 166 170
340 346 307 251 313 322 47 53 66 276 350 295 319 320 14 7 342 336 357 8 17 63 6 19 335 23 344 324 216 178 137 148 159 157 208 113 265 246 232 219 187 177 171 165 174
359 352 340 318 331 44 67 49 177 299 303 310 330 1 338 355 339 5 6 8 31 19 89 10 281 324 299 316 146 282 330 221 101 341 70 206 276 303 310 34 157 158 161 174 177
69 32 307 334 347 54 66 115 124 8 321 7 9 12 344 328 1 34 334 349 336 9 158 271 295 280 312 320 240 125 204 54 12 112 178 319 25 347 340 348 290 164 172 179 176
54 53 288 343 38 45 94 217 326 348 9 356 330 299 344 326 280 294 267 341 342 323 327 246 213 290 341 73 211 56 341 20 108 138 182 132 356 358 322 294 291 187 180 172 175
66 45 307 4 52 15 52 344 336 353 356 3 346 359 3 334 303 293 287 225 14 347 330 288 244 280 252 279 309 278 173 149 116 225 211 122 317 12 345 326 338 281 181 176 169
79 278 322 55 75 342 324 353 12 6 4 359 336 12 22 323 337 252 320 310 6 338 335 300 321 329 356 71 29 49 6 281 154 90 294 120 218 27 0 350 353 356 166 160 160
75 34 337 43 76 121 47 355 349 335 331 352 303 28 357 325 333 299 304 306 329 296 292 5 265 211 215 231 103 300 337 320 123 338 164 96 320 358 354 351 353 3 10 82 153
46 251 179 352 340 75 76 297 336 357 356 354 348 359 322 311 310 255 301 319 296 343 4 94 264 223 259 271 256 239 232 272 165 164 325 158 82 359 348 332 352 5 16 46 76
105 116 6 134 357 62 357 319 321 323 263 303 300 306 284 205 203 280 282 230 252 334 348 341 286 327 300 306 50 97 339 227 64 101 100 116 101 27 331 337 20 11 7 14 35
323 14 98 342 31 73 250 258 295 357 302 270 313 315 302 271 254 268 263 251 246 277 304 311 312 359 281 322 233 37 347 28 101 45 344 67 22 39 338 25 25 8 360 357 356